FW1340 Weather Reports


time (UTC)temp
F
wind
direction
speed
knots
gust
knots
rain 1hr
in
rain 24hr
in
rain mn
in
humidity
%
barometer
mb
20260505171527 56 232 0.0 0.0 0.00 0.17 0.13 92 1015.7
20260505170016 55 213 0.0 0.0 0.00 0.17 0.13 93 1015.7
20260505164527 55 203 0.0 0.0 0.00 0.17 0.13 93 1015.7
20260505163013 55 225 0.0 0.0 0.00 0.17 0.13 94 1015.6
20260505161509 55 209 0.0 0.0 0.00 0.17 0.13 95 1015.6
20260505153004 54 167 0.0 0.0 0.00 0.17 0.13 96 1015.5
20260505151502 54 166 0.0 0.0 0.00 0.17 0.13 96 1015.4
20260505150115 53 146 0.0 0.0 0.00 0.17 0.13 96 1015.2
20260505140105 53 163 0.0 0.0 0.00 0.17 0.13 96 1014.9
20260505124546 52 161 0.0 0.0 0.00 0.17 0.13 95 1014.6
20260505123105 52 196 0.0 0.0 0.00 0.17 0.13 96 1014.5
20260505121544 52 209 0.0 0.0 0.00 0.17 0.13 96 1014.7
20260505120050 52 198 0.0 0.0 0.00 0.17 0.13 96 1014.6
20260505114552 53 185 0.0 0.0 0.00 0.17 0.13 95 1014.6
20260505113049 52 211 0.0 0.0 0.00 0.17 0.13 95 1014.6
20260505111540 52 232 0.0 0.0 0.02 0.17 0.13 95 1014.6
20260505101539 53 232 0.0 0.0 0.05 0.15 0.11 95 1014.9
20260505100034 53 220 0.0 0.0 0.07 0.15 0.11 95 1014.9
20260505094533 53 202 0.0 0.0 0.08 0.15 0.11 94 1015.0
20260505093040 53 194 0.0 0.0 0.07 0.13 0.09 94 1015.0
20260505091539 53 167 0.0 0.0 0.05 0.10 0.06 94 1015.2
20260505090043 53 174 0.0 0.0 0.03 0.08 0.04 94 1015.3
20260505084527 53 179 0.0 0.0 0.02 0.07 0.03 93 1015.4
20260505083027 53 186 0.0 0.0 0.02 0.06 0.02 93 1015.4
20260505081535 53 186 0.0 0.0 0.01 0.05 0.01 93 1015.4
20260505080043 53 186 0.0 0.0 0.01 0.05 0.01 93 1015.5
20260505074521 53 180 0.0 0.0 0.01 0.05 0.01 93 1015.8
20260505073020 53 163 0.0 0.0 0.01 0.04 0.00 92 1015.8
20260505071518 53 167 0.0 0.0 0.02 0.04 0.00 92 1015.7
20260505070021 53 271 0.0 0.0 0.03 0.04 0.00 92 1015.8
20260505064514 54 270 0.0 0.0 0.03 0.04 0.04 91 1015.6
20260505063014 54 258 0.0 0.0 0.02 0.03 0.03 91 1015.2
20260505061516 54 238 0.0 0.0 0.01 0.02 0.02 90 1015.2
20260505060017 54 268 0.0 0.0 0.00 0.01 0.01 90 1015.3
20260505054511 54 268 0.0 0.0 0.00 0.01 0.01 89 1015.4
20260505053016 54 268 0.0 0.0 0.00 0.01 0.01 89 1015.3
20260505051510 54 268 0.0 0.0 0.00 0.01 0.01 89 1015.5
20260505041507 56 319 0.0 0.0 0.01 0.01 0.01 84 1015.6
20260505040009 56 257 0.0 0.0 0.00 0.00 0.00 81 1015.4
20260505034508 57 284 0.0 0.0 0.00 0.00 0.00 78 1015.2
20260505033005 57 291 0.0 0.0 0.00 0.00 0.00 73 1015.1
20260505031505 57 256 0.0 0.0 0.00 0.00 0.00 72 1015.1
20260505030004 58 273 0.0 0.0 0.00 0.00 0.00 72 1014.7
20260505024504 58 271 0.0 0.0 0.00 0.00 0.00 71 1014.5
20260505023003 59 306 0.0 0.0 0.00 0.00 0.00 68 1014.6
20260505021504 60 272 0.0 0.0 0.00 0.00 0.00 68 1014.7
20260505020003 61 290 0.0 0.0 0.00 0.00 0.00 72 1014.5
20260505014501 61 209 0.0 0.0 0.00 0.00 0.00 74 1014.5
20260505013001 61 157 0.0 0.0 0.00 0.00 0.00 73 1014.5
20260505011607 61 80 0.0 0.0 0.00 0.00 0.00 72 1014.6
20260505011501 61 59 0.0 0.0 0.00 0.00 0.00 72 1014.7
20260505010100 61 63 0.0 0.0 0.00 0.00 0.00 71 1014.7
20260505004559 62 89 0.0 0.0 0.00 0.00 0.00 70 1014.8
20260505003100 62 77 0.0 0.0 0.00 0.00 0.00 69 1014.7
20260505001628 63 40 0.0 0.0 0.00 0.00 0.00 63 1014.8
20260505000157 63 324 0.0 0.0 0.00 0.00 0.00 62 1014.8
20260504234612 64 274 0.0 0.0 0.00 0.00 0.00 62 1014.7
20260504233105 64 317 0.0 0.0 0.00 0.00 0.00 63 1014.8
20260504231554 64 313 0.0 0.0 0.00 0.00 0.00 62 1014.9
20260504230054 64 319 0.0 0.0 0.00 0.00 0.00 63 1014.9
20260504224608 64 315 0.0 0.0 0.00 0.00 0.00 63 1015.0
20260504223053 64 321 0.0 0.0 0.00 0.00 0.00 63 1015.1
20260504221552 63 348 0.0 0.0 0.00 0.00 0.00 64 1015.1
20260504220051 63 256 0.0 0.0 0.00 0.00 0.00 64 1015.2
20260504214551 63 254 0.0 0.0 0.00 0.00 0.00 61 1015.3
20260504213121 63 274 0.0 0.0 0.00 0.00 0.00 61 1015.3
20260504211548 63 348 0.0 0.0 0.00 0.00 0.00 62 1015.5
20260504210048 63 332 0.0 0.0 0.00 0.00 0.00 63 1015.4
20260504204552 63 246 0.0 0.0 0.00 0.00 0.00 65 1015.5
20260504203057 63 258 0.0 0.0 0.00 0.00 0.00 64 1015.5
20260504201542 62 242 0.0 0.0 0.00 0.00 0.00 69 1015.4
20260504200041 62 263 0.0 0.0 0.00 0.00 0.00 70 1015.4
20260504194547 61 326 0.0 0.0 0.00 0.00 0.00 75 1015.4
20260504193040 60 276 0.0 0.0 0.00 0.00 0.00 79 1015.7
20260504191532 59 199 0.0 0.0 0.00 0.00 0.00 80 1015.7
20260504190027 59 182 0.0 0.0 0.00 0.00 0.00 80 1015.8
20260504184526 59 115 0.0 0.0 0.00 0.00 0.00 80 1015.8
20260504183027 59 119 0.0 0.0 0.00 0.00 0.00 80 1015.7
20260504181524 59 181 0.0 0.0 0.00 0.00 0.00 78 1015.8
20260504180020 59 106 0.0 0.0 0.00 0.00 0.00 75 1015.9
20260504174518 59 138 0.0 0.0 0.00 0.00 0.00 74 1015.8
20260504173030 59 180 0.0 0.0 0.00 0.00 0.00 74 1015.7